Regional Weather Roundup
Issued by NWS Albany, NY

Home | Current Version | Previous Version | Text Only | Print | Product List | Glossary On
Versions: 1 2 3 4 5 6 7 8 9 10 11 12 13 14 15 16 17 18 19 20 21 22 23 24 25 26 27 28 29 30 31 32 33 34 35 36 37 38 39 40 41 42 43 44 45 46 47 48 49 50
231
ASUS41 KALY 301010
RWRALY

NEW YORK STATE HOURLY WEATHER ROUNDUP
NATIONAL WEATHER SERVICE ALBANY NY
600 AM EDT SUN APR 30 2017

NOTE: "FAIR" INDICATES FEW OR NO CLOUDS BELOW 12,000 FEET WITH NO
SIGNIFICANT WEATHER AND/OR NO OBSTRUCTIONS TO VISIBILITY.

NYZ032-033-038>043-046>054-057>066-NYZ062>081-082-084-301100-
EAST


CITY           SKY/WX    TMP DP  RH WIND       PRES   REMARKS
ALBANY         PTCLDY    42  26  53 N12       30.28R
GLENS FALLS    CLEAR     40  25  55 N5        30.28R
POUGHKEEPSIE   CLEAR     50  35  56 N9        30.21R
NEWBURGH       CLEAR     50  37  62 E12       30.21R
MONTGOMERY     CLEAR     50  37  61 NE3       30.20R
WHITE PLAINS   MOCLDY    54  35  48 N8        30.20R
ISLIP          MOCLDY    57  36  45 N8        30.19R
NEW YORK CITY  PTCLDY    61  42  49 NE10      30.18R
CENTRAL PARK   PTCLDY    61  44  53 VRB5      30.21R
$$

NYZ005>009-017-018-044>046-055-056-301100-
CENTRAL


CITY           SKY/WX    TMP DP  RH WIND       PRES   REMARKS
FULTON         MOCLDY    39  29  67 CALM      30.26R
SYRACUSE       CLOUDY    40  32  73 E6        30.24R
ROME           MOCLDY    39  30  70 CALM      30.26R
ELMIRA         CLOUDY    42  35  76 NE8       30.19F
BINGHAMTON     CLOUDY    41  33  73 E5        30.20S
MONTICELLO     CLEAR     45  36  70 N9        30.20F
$$

NYZ026>034-041>043-087-301100-
NORTH


CITY           SKY/WX    TMP DP  RH WIND       PRES   REMARKS
WATERTOWN      CLOUDY    37  28  70 NE9       30.28R WCI  30
FORT DRUM      NOT AVBL
OGDENSBURG     FAIR      38  29  67 NE9       30.32S WCI  32
MASSENA        CLOUDY    37  27  67 NE7       30.35S WCI  32
SARANAC LAKE   CLOUDY    30  25  81 CALM      30.24R
PLATTSBURGH    CLOUDY    36  25  64 NW8       30.33R WCI  30
$$

NYZ001>004-010>016-019>021-085-301100-
WEST


CITY           SKY/WX    TMP DP  RH WIND       PRES   REMARKS
NIAGARA FALLS  CLOUDY    44  29  55 E16G23    30.18R
BUFFALO        CLOUDY    43  29  57 E17G23    30.18R
DUNKIRK        CLOUDY    46  37  71 NE13      30.12R
JAMESTOWN      CLOUDY    46  39  76 E9        30.07F
WELLSVILLE     CLOUDY    43  39  86 E7        30.16F
ROCHESTER      CLOUDY    42  29  59 E10       30.25R
PENN YAN       CLOUDY    41  33  73 CALM      30.22S
$$

             KEY
       WCI = WIND CHILL INDEX
       VSB = VISIBILITY
       HX  = HEAT INDEX
$$




USA.gov is the U.S. government's official web portal to all federal, state and local government web resources and services.